Location: Bothwell
(41.7170°N, 112.2589°W)
Time: 01:02:01
(UTC+00:00)

STARLINK-37338 - Pass Details

Date: 19 April 2026
Orbit: 262 x 264 km, 97.3° (Epoch: 18 April)

Event Time Altitude Azimuth Distance (km) Brightness Sun altitude
Rises 04:05:33 0° 12° (NNE) 1,897 5.7 -19.6°
Reaches altitude 10° 04:07:22 10° 12° (NNE) 1,083 4.4 -19.9°
Enters shadow 04:07:29 11° 12° (NNE) 1,031 4.3 -19.9°
